KS4XQ Weather Reports


Display with metric or nautical units.
time (UTC)temp
F
wind
direction
speed
MPH
gust
MPH
rain 1hr
in
rain 24hr
in
rain mn
in
humidity
%
barometer
mb
20260505123003 53 269 1.0 4.0 0.00 0.00 0.00 89 1016.1
20260505122502 53 279 1.0 3.0 0.00 0.00 0.00 88 1016.2
20260505122000 53 295 2.0 5.0 0.00 0.00 0.00 89 1016.1
20260505121500 52 298 2.0 5.0 0.00 0.00 0.00 89 1016.1
20260505121000 52 285 1.0 6.0 0.00 0.00 0.00 89 1016.1
20260505120003 51 280 1.0 3.0 0.00 0.00 0.00 91 1015.9
20260505115500 51 315 0.0 2.0 0.00 0.00 0.00 91 1016.0
20260505115002 50 246 0.0 2.0 0.00 0.00 0.00 91 1016.0
20260505114500 50 242 0.0 1.0 0.00 0.00 0.00 91 1015.9
20260505114000 49 186 1.0 2.0 0.00 0.00 0.00 91 1015.8
20260505113000 49 186 0.0 2.0 0.00 0.00 0.00 90 1015.7
20260505112002 49 186 0.0 1.0 0.00 0.00 0.00 89 1015.8
20260505111500 49 186 0.0 1.0 0.00 0.00 0.00 89 1015.8
20260505111005 48 186 0.0 1.0 0.00 0.00 0.00 90 1015.9
20260505110500 48 186 0.0 2.0 0.00 0.00 0.00 90 1016.0
20260505102002 47 186 0.0 0.0 0.00 0.00 0.00 89 1015.6
20260505100500 47 186 0.0 0.0 0.00 0.00 0.00 89 1015.5
20260505100006 47 186 0.0 0.0 0.00 0.00 0.00 88 1015.5
20260505095000 47 186 1.0 2.0 0.00 0.00 0.00 88 1015.6
20260505094502 47 186 0.0 1.0 0.00 0.00 0.00 88 1015.5
20260505094001 47 186 0.0 0.0 0.00 0.00 0.00 87 1015.6
20260505093500 47 186 0.0 0.0 0.00 0.00 0.00 86 1015.6
20260505093003 47 186 0.0 0.0 0.00 0.00 0.00 86 1015.6
20260505092500 48 186 0.0 0.0 0.00 0.00 0.00 87 1015.6
20260505092000 48 186 0.0 0.0 0.00 0.00 0.00 87 1015.6
20260505090500 48 186 0.0 0.0 0.00 0.00 0.00 87 1015.5
20260505090002 48 186 0.0 0.0 0.00 0.00 0.00 84 1015.3
20260505085501 48 186 0.0 0.0 0.00 0.00 0.00 85 1015.3
20260505084501 49 186 0.0 0.0 0.00 0.00 0.00 84 1015.3
20260505084001 49 186 0.0 0.0 0.00 0.00 0.00 85 1015.3
20260505083501 49 186 0.0 0.0 0.00 0.00 0.00 85 1015.1
20260505083002 49 186 0.0 0.0 0.00 0.00 0.00 85 1015.2
20260505082501 49 186 0.0 0.0 0.00 0.00 0.00 85 1015.1
20260505082001 49 186 0.0 0.0 0.00 0.00 0.00 85 1015.1
20260505081500 49 186 0.0 0.0 0.00 0.00 0.00 85 1015.1
20260505081003 49 186 0.0 0.0 0.00 0.00 0.00 86 1015.1
20260505080501 49 186 0.0 1.0 0.00 0.00 0.00 86 1014.9
20260505080003 49 186 0.0 1.0 0.00 0.00 0.00 86 1015.0
20260505075502 49 186 0.0 1.0 0.00 0.00 0.00 85 1015.0
20260505075001 49 186 0.0 0.0 0.00 0.00 0.00 84 1014.9
20260505074501 49 186 0.0 0.0 0.00 0.00 0.00 85 1014.9
20260505074000 49 186 0.0 0.0 0.00 0.00 0.00 85 1015.0
20260505073502 49 186 0.0 0.0 0.00 0.00 0.00 85 1014.9
20260505073000 49 186 0.0 0.0 0.00 0.00 0.00 85 1015.0
20260505072500 49 186 0.0 0.0 0.00 0.00 0.00 85 1014.9
20260505071503 49 186 0.0 1.0 0.00 0.00 0.00 85 1015.2
20260505071000 49 186 0.0 2.0 0.00 0.00 0.00 85 1015.1
20260505070500 49 186 1.0 2.0 0.00 0.00 0.00 85 1015.2
20260505070005 50 186 0.0 2.0 0.00 0.00 0.00 84 1015.2
20260505065500 50 186 0.0 0.0 0.00 0.00 0.00 83 1015.1
20260505065000 50 186 0.0 0.0 0.00 0.00 0.00 83 1015.0
20260505064502 50 186 0.0 0.0 0.00 0.00 0.00 82 1015.1
20260505064000 50 186 0.0 0.0 0.00 0.00 0.00 82 1015.1
20260505063501 50 186 0.0 0.0 0.00 0.00 0.00 82 1015.0
20260505063000 50 186 0.0 0.0 0.00 0.00 0.00 81 1015.1
20260505062000 51 186 0.0 0.0 0.00 0.00 0.00 81 1015.2
20260505061500 51 186 0.0 0.0 0.00 0.00 0.00 82 1015.2
20260505060500 51 186 0.0 0.0 0.00 0.00 0.00 83 1015.1
20260505060005 52 186 0.0 0.0 0.00 0.00 0.00 82 1015.0
20260505055500 52 186 0.0 0.0 0.00 0.00 0.00 82 1015.1
20260505054502 53 186 0.0 0.0 0.00 0.00 0.00 81 1015.1
20260505054000 53 186 0.0 0.0 0.00 0.00 0.00 79 1015.1
20260505053500 53 186 0.0 0.0 0.00 0.00 0.00 80 1015.2
20260505053000 53 186 0.0 0.0 0.00 0.00 0.00 80 1015.2
20260505052505 54 186 0.0 0.0 0.00 0.00 0.00 79 1015.2
20260505052000 54 186 0.0 0.0 0.00 0.00 0.00 78 1015.3
20260505051500 54 186 0.0 0.0 0.00 0.00 0.00 78 1015.3
20260505050500 55 186 0.0 0.0 0.00 0.00 0.00 78 1015.4
20260505041500 56 190 0.0 0.0 0.00 0.00 0.00 71 1015.3
20260505040500 56 190 0.0 0.0 0.00 0.00 0.00 70 1015.3
20260505040008 57 190 0.0 1.0 0.00 0.00 0.00 70 1015.3
20260505035502 57 190 0.0 1.0 0.00 0.00 0.00 70 1015.4
20260505035002 57 190 0.0 0.0 0.00 0.00 0.00 69 1015.4
20260505034502 57 190 0.0 0.0 0.00 0.00 0.00 69 1015.4
20260505033502 57 190 0.0 0.0 0.00 0.00 0.00 68 1015.5
20260505033002 58 190 0.0 0.0 0.00 0.00 0.00 68 1015.5
20260505032502 58 190 0.0 0.0 0.00 0.00 0.00 68 1015.4
20260505032004 58 190 0.0 0.0 0.00 0.00 0.00 68 1015.4
20260505031002 58 190 0.0 0.0 0.00 0.00 0.00 67 1015.4
20260505030504 58 190 0.0 0.0 0.00 0.00 0.00 67 1015.4
20260505030005 58 190 0.0 0.0 0.00 0.00 0.00 68 1015.4
20260505025503 59 190 0.0 0.0 0.00 0.00 0.00 68 1015.4
20260505025005 59 190 0.0 0.0 0.00 0.00 0.00 68 1015.5
20260505024503 59 190 0.0 0.0 0.00 0.00 0.00 68 1015.5
20260505024003 59 190 0.0 1.0 0.00 0.00 0.00 68 1015.4
20260505023501 59 190 0.0 1.0 0.00 0.00 0.00 67 1015.2
20260505023005 60 190 0.0 0.0 0.00 0.00 0.00 67 1015.1
20260505021503 60 190 0.0 0.0 0.00 0.00 0.00 65 1015.0
20260505020503 61 190 0.0 1.0 0.00 0.00 0.00 65 1015.0
20260505020006 61 190 0.0 0.0 0.00 0.00 0.00 64 1015.0
20260505015003 61 190 0.0 0.0 0.00 0.00 0.00 61 1014.9
20260505014504 62 190 0.0 0.0 0.00 0.00 0.00 61 1014.8
20260505014003 62 190 0.0 0.0 0.00 0.00 0.00 60 1014.8
20260505013504 62 190 0.0 0.0 0.00 0.00 0.00 60 1014.8
20260505013003 62 190 0.0 0.0 0.00 0.00 0.00 60 1014.7
20260505012502 63 190 0.0 0.0 0.00 0.00 0.00 60 1014.6
20260505012004 63 190 0.0 0.0 0.00 0.00 0.00 59 1014.6
20260505011003 64 190 0.0 0.0 0.00 0.00 0.00 58 1014.6
20260505010503 64 190 0.0 0.0 0.00 0.00 0.00 57 1014.5
20260505010006 65 190 0.0 0.0 0.00 0.00 0.00 57 1014.5
20260505005503 65 190 0.0 0.0 0.00 0.00 0.00 55 1014.5
20260505005002 65 190 0.0 0.0 0.00 0.00 0.00 55 1014.5
20260505004502 66 190 0.0 0.0 0.00 0.00 0.00 55 1014.5
20260505004002 66 190 0.0 0.0 0.00 0.00 0.00 54 1014.4
20260505003503 67 190 0.0 0.0 0.00 0.00 0.00 54 1014.4
20260505003002 67 190 0.0 0.0 0.00 0.00 0.00 53 1014.3
20260505002503 67 190 0.0 0.0 0.00 0.00 0.00 53 1014.3
20260505001502 68 190 0.0 0.0 0.00 0.00 0.00 52 1014.4
20260505001003 69 190 0.0 0.0 0.00 0.00 0.00 52 1014.3
20260505000007 69 190 0.0 0.0 0.00 0.00 0.00 52 1014.3
20260504235503 70 190 0.0 1.0 0.00 0.00 0.00 52 1014.2
20260504235004 70 190 0.0 1.0 0.00 0.00 0.00 52 1014.2
20260504234506 71 190 0.0 0.0 0.00 0.00 0.00 51 1014.1
20260504234003 71 190 0.0 0.0 0.00 0.00 0.00 51 1014.1
20260504233502 71 190 0.0 0.0 0.00 0.00 0.00 49 1014.0
20260504233004 72 190 0.0 1.0 0.00 0.00 0.00 49 1013.9
20260504232502 72 190 0.0 1.0 0.00 0.00 0.00 49 1013.9
20260504232002 72 190 0.0 1.0 0.00 0.00 0.00 48 1014.0
20260504231503 72 190 0.0 2.0 0.00 0.00 0.00 46 1014.0
20260504231003 73 190 0.0 3.0 0.00 0.00 0.00 47 1014.0
20260504230504 73 175 0.0 3.0 0.00 0.00 0.00 46 1014.0
20260504230005 73 269 0.0 0.0 0.00 0.00 0.00 44 1013.9
20260504225504 73 269 0.0 2.0 0.00 0.00 0.00 44 1014.0
20260504224502 74 294 0.0 2.0 0.00 0.00 0.00 43 1014.0
20260504224004 74 248 1.0 3.0 0.00 0.00 0.00 41 1013.9
20260504223502 74 266 1.0 3.0 0.00 0.00 0.00 40 1013.9
20260504223002 74 286 1.0 3.0 0.00 0.00 0.00 41 1014.0
20260504222504 74 284 2.0 6.0 0.00 0.00 0.00 39 1014.0
20260504222004 74 279 2.0 6.0 0.00 0.00 0.00 38 1014.0
20260504221502 74 257 2.0 5.0 0.00 0.00 0.00 39 1014.1
20260504221002 74 268 1.0 5.0 0.00 0.00 0.00 38 1014.1
20260504215501 75 355 3.0 8.0 0.00 0.00 0.00 36 1014.0
20260504215001 75 311 2.0 7.0 0.00 0.00 0.00 35 1014.1
20260504214000 76 143 2.0 4.0 0.00 0.00 0.00 37 1014.1
20260504213500 76 217 2.0 5.0 0.00 0.00 0.00 36 1014.1
20260504213001 76 227 3.0 7.0 0.00 0.00 0.00 36 1014.1
20260504212502 76 263 2.0 7.0 0.00 0.00 0.00 35 1014.1
20260504211502 76 277 3.0 10.0 0.00 0.00 0.00 35 1014.1
20260504211000 76 292 3.0 8.0 0.00 0.00 0.00 35 1014.0
20260504210501 77 253 2.0 8.0 0.00 0.00 0.00 36 1014.0
20260504210004 77 275 2.0 4.0 0.00 0.00 0.00 36 1013.9
20260504205503 77 115 2.0 4.0 0.00 0.00 0.00 36 1013.9
20260504205001 77 302 2.0 7.0 0.00 0.00 0.00 35 1014.1
20260504204001 78 296 1.0 8.0 0.00 0.00 0.00 34 1014.2
20260504203501 78 212 2.0 8.0 0.00 0.00 0.00 34 1014.2
20260504203001 79 242 1.0 6.0 0.00 0.00 0.00 35 1014.2
20260504202503 80 11 1.0 6.0 0.00 0.00 0.00 34 1014.0
20260504202001 80 174 2.0 7.0 0.00 0.00 0.00 33 1014.1
20260504201001 80 187 2.0 4.0 0.00 0.00 0.00 32 1014.2
20260504200501 81 189 2.0 4.0 0.00 0.00 0.00 35 1014.1
20260504200004 80 144 2.0 7.0 0.00 0.00 0.00 32 1014.2
20260504195503 80 161 1.0 7.0 0.00 0.00 0.00 35 1014.4
20260504195001 80 209 1.0 3.0 0.00 0.00 0.00 31 1014.3
20260504194503 81 49 2.0 5.0 0.00 0.00 0.00 32 1014.5
20260504194001 80 206 2.0 5.0 0.00 0.00 0.00 32 1014.5
20260504193500 80 102 3.0 7.0 0.00 0.00 0.00 34 1014.5
20260504193002 80 245 2.0 7.0 0.00 0.00 0.00 32 1014.6
20260504192502 79 205 2.0 7.0 0.00 0.00 0.00 37 1014.8
20260504192001 79 217 2.0 7.0 0.00 0.00 0.00 35 1014.9
20260504191501 79 44 2.0 5.0 0.00 0.00 0.00 33 1014.9
20260504191001 79 250 2.0 7.0 0.00 0.00 0.00 33 1015.1
20260504190003 79 206 2.0 8.0 0.00 0.00 0.00 36 1015.2
20260504185002 78 175 2.0 9.0 0.00 0.00 0.00 35 1015.4
20260504184502 78 5 2.0 9.0 0.00 0.00 0.00 35 1015.5
20260504184002 78 156 2.0 4.0 0.00 0.00 0.00 36 1015.5
20260504183002 77 316 2.0 5.0 0.00 0.00 0.00 36 1015.6
20260504182502 78 177 2.0 5.0 0.00 0.00 0.00 38 1015.6
20260504181502 78 208 2.0 5.0 0.00 0.00 0.00 40 1015.7
20260504181002 77 282 2.0 5.0 0.00 0.00 0.00 40 1015.8
20260504180501 76 9 2.0 5.0 0.00 0.00 0.00 34 1015.8
20260504180006 77 19 2.0 7.0 0.00 0.00 0.00 36 1015.8
20260504175502 76 205 3.0 7.0 0.00 0.00 0.00 35 1015.8
20260504175005 76 277 3.0 7.0 0.00 0.00 0.00 35 1015.9
20260504174504 76 281 2.0 4.0 0.00 0.00 0.00 38 1015.8
20260504174002 77 307 2.0 6.0 0.00 0.00 0.00 36 1015.9
20260504173001 78 297 1.0 4.0 0.00 0.00 0.00 35 1016.0
20260504172503 79 238 2.0 5.0 0.00 0.00 0.00 32 1016.0
20260504172002 79 228 1.0 4.0 0.00 0.00 0.00 33 1016.1
20260504171502 78 150 1.0 3.0 0.00 0.00 0.00 41 1016.1
20260504171002 77 296 1.0 4.0 0.00 0.00 0.00 35 1016.2
20260504150501 67 265 2.0 4.0 0.00 0.00 0.00 50 1017.6
20260504141001 59 113 1.0 2.0 0.00 0.00 0.00 69 1017.6
20260504140502 58 349 1.0 5.0 0.00 0.00 0.00 72 1017.6